SCP
0 0 0 0 0 0 0 0 0 0 0 0 0 0 0 0 0 0 0 0 0 0 0 0 0 0 0 0 0 0 0 0 0 0 0 0 0 0 0 0 0 0 0
0 0 0 0 0 0 0 0 0 0 0 0 0 0 0 0 0 0 0 0 0 0 0 0 0 0 0 0 0 0 0 0 0 0 0 0 0 0 0 0 0 0 0
0 0 0 0 0 0 0 0 0 0 0 0 0 0 0 0 0 0 0 0 0 0 0 0 0 0 0 0 0 0 0 0 0 0 0 0 0 0 0 0 0 0 0
0 0 0 0 0 0 0 0 0 0 0 0 0 0 0 0 0 0 0 0 0 0 0 0 0 0 0 0 0 0 0 0 0 0 0 0 0 0 0 0 0 0 0
0 0 0 0 0 0 0 0 0 0 0 0 0 0 0 0 0 0 0 0 0 0 0 0 0 0 0 0 0 0 0 0 0 0 0 0 0 0 0 0 0 0 0
0 0 0 0 0 0 0 0 0 0 0 0 0 0 0 0 0 0 0 0 0 0 0 0 0 0 0 0 0 0 0 0 0 0 0 0 0 0 0 0 0 0 0
0 0 0 0 0 0 0 0 0 0 0 0 0 0 0 0 0 0 0 0 0 0 0 0 0 0 0 0 0 0 0 0 0 0 0 0 0 0 0 0 0 0 0
0 0 0 0 0 0 0 0 0 0 0 0 0 0 0 0 0 0 0 0 0 0 0 0 0 0 0 0 0 0 0 0 0 0 0 0 0 0 0 0 0 0 0
0 0 0 0 0 0 0 0 0 0 0 0 0 0 0 0 0 0 0 0 0 0 0 0 0 0 0 0 0 0 0 0 0 0 0 0 0 0 0 0 0 0 0
0 0 0 0 0 0 0 0 0 0 0 0 0 0 0 0 0 0 0 0 0 0 0 0 0 0 0 0 0 0 0 0 0 0 0 0 0 0 0 0 0 0 0
0 0 0 0 0 0 0 0 0 0 0 0 0 0 0 0 0 0 0 0 0 0 0 0 0 0 0 0 0 0 0 0 0 0 0 0 0 0 0 0 0 0 0
0 0 0 0 0 0 0 0 0 0 0 0 0 0 0 0 0 0 0 0 0 0 0 0 0 0 0 0 0 0 0 0 0 0 0 0 0 0 0 0 0 0 0
0 0 0 0 0 0 0 0 0 0 0 0 0 0 0 0 0 0 0 0 0 0 0 0 0 0 0 0 0 0 0 0 0 0 0 0 0 0 0 0 0 0 0
0 0 0 0 0 0 0 0 0 0 0 0 0 0 0 0 0 0 0 0 0 0 0 0 0 0 0 0 0 0 0 0 0 0 0 0 0 0 0 0 0 0 0
0 0 0 0 0 0 0 0 0 0 0 0 0 0 0 0 0 0 0 0 0 0 0 0 0 0 0 0 0 0 0 0 0 0 0 0 0 0 0 0 0 0 0
0 0 0 0 0 0 0 0 0 0 0 0 0 0 0 0 0 0 0 0 0 0 0 0 0 0 0 0 0 0 0 0 0 0 0 0 0 0 0 0 0 0 0
0 0 0 0 0 0 0 0 0 0 0 0 0 0 0 0 0 0 0 0 0 0 0 0 0 0 0 0 0 0 0 0 0 0 0 0 0 0 0 0 0 0 0
0 0 0 0 0 0 0 0 0 0 0 0 0 0 0 0 0 0 0 0 0 0 0 0 0 0 0 0 0 0 0 0 0 0 0 0 0 0 0 0 0 0 0
0 0 0 0 0 0 0 0 0 0 0 0 0 0 0 0 0 0 0 0 0 0 0 0 0 0 0 0 0 0 0 0 0 0 0 0 0 0 0 0 0 0 0
0 0 0 0 0 0 0 0 0 0 0 0 0 0 0 0 0 0 0 0 0 0 0 0 0 0 0 0 0 0 0 0 0 0 0 0 0 0 0 0 0 0 0
0 0 0 0 0 0 0 0 0 0 0 0 0 0 0 0 0 0 0 0 0 0 0 0 0 0 0 0 0 0 0 0 0 0 0 0 0 0 0 0 0 0 0
0 0 0 0 0 0 0 0 0 0 0 0 0 0 0 0 0 0 0 0 0 0 0 0 0 0 0 0 0 0 0 0 0 0 0 0 0 0 0 0 0 0 0
1 1 1 1 1 0 0 0 0 0 0 0 0 0 0 0 0 0 0 0 0 0 0 0 0 0 0 0 0 0 0 0 0 0 0 0 0 0 0 0 0 0 0
1 1 1 1 1 1 1 0 0 0 0 0 0 0 0 0 0 0 0 0 0 0 0 0 0 0 0 0 0 0 0 0 0 0 0 0 0 0 0 0 0 0 0
1 1 1 1 1 1 1 1 0 0 0 0 0 0 0 0 0 0 0 0 0 0 0 0 0 0 0 0 0 0 0 0 0 0 0 0 0 0 0 0 0 0 0
1 1 1 1 1 1 1 1 0 0 0 0 0 0 0 0 0 0 0 0 0 0 0 0 0 0 0 0 0 0 0 0 0 0 0 0 0 0 0 0 0 0 0
Wind_Speed
1 2 9 11 11 12 12 12 12 13 12 12 12 13 14 15 15 15 15 15 15 15 15 15 15 15 17 17 17 17 17 17 17 16 16 16 16 16 15 15 14 10 15
3 4 10 11 11 12 12 12 12 12 12 12 12 13 14 14 14 14 15 15 15 15 15 15 15 16 16 16 16 16 17 16 16 16 16 15 16 15 15 15 13 9 15
5 4 8 11 11 11 11 11 11 12 12 12 12 13 13 14 14 14 15 15 15 15 15 15 15 15 15 15 15 15 15 15 14 15 14 8 11 15 14 15 15 15 14
6 4 7 11 11 11 11 11 11 11 12 12 13 13 13 14 14 14 14 14 14 14 14 14 14 14 14 14 14 13 13 12 13 13 7 6 7 14 14 15 15 15 14
5 4 7 11 11 11 11 11 11 11 11 12 12 12 13 13 13 14 13 13 13 13 13 13 13 13 12 12 11 11 11 11 12 9 5 5 5 13 14 14 14 14 14
5 4 7 11 11 11 11 11 11 11 11 11 12 12 12 13 13 13 13 12 12 12 12 12 11 11 11 11 10 9 9 10 9 6 5 5 5 12 14 14 13 13 13
5 4 6 11 11 11 11 11 11 11 11 11 12 12 12 12 12 12 12 11 11 11 11 10 10 9 9 9 8 8 9 10 6 5 5 5 6 12 13 13 13 12 12
7 4 5 10 11 11 11 10 11 11 12 12 12 12 12 12 12 11 11 11 10 10 9 9 8 7 7 7 7 8 9 9 7 7 5 5 9 12 13 13 13 12 11
6 5 4 4 7 10 10 10 11 11 11 11 11 11 11 11 11 10 10 9 9 9 8 8 6 6 5 5 6 7 7 9 5 5 7 4 10 12 13 12 12 12 11
5 4 3 3 3 4 5 9 10 10 10 10 10 11 10 10 10 9 8 8 8 8 7 7 5 5 4 4 5 6 7 7 4 4 3 6 12 12 12 12 12 11 11
5 3 3 3 3 3 4 6 7 8 8 8 7 9 7 3 3 5 6 8 7 7 6 5 4 4 3 3 4 5 5 3 3 3 3 8 12 12 12 12 11 11 11
6 5 4 4 4 4 4 3 2 3 2 2 2 3 3 2 2 4 5 7 6 6 5 4 3 2 2 1 2 2 2 4 3 3 4 10 11 12 12 12 12 11 11
7 6 5 5 4 4 3 3 2 1 1 1 2 2 2 2 2 2 1 2 2 2 1 1 1 0 0 1 1 1 3 3 2 2 5 11 11 12 12 11 12 12 11
6 6 5 6 5 4 4 3 3 2 2 1 2 4 3 2 2 2 2 1 1 1 1 0 0 1 1 1 2 2 3 2 2 1 4 11 11 11 11 10 10 11 11
5 5 5 5 6 5 4 3 3 2 2 2 2 2 3 3 3 2 2 1 1 1 1 1 1 1 1 1 2 3 3 4 4 3 3 9 10 10 11 10 10 9 10
5 5 5 5 5 5 4 3 2 2 2 2 2 2 3 3 3 3 2 2 1 1 1 2 1 1 1 1 2 3 3 4 4 3 2 5 9 9 10 10 10 10 10
7 6 6 5 5 5 4 4 3 2 2 2 2 2 3 3 3 3 2 2 1 1 2 1 1 2 2 2 3 3 3 3 4 3 3 2 3 7 9 9 9 8 9
7 6 5 6 5 4 4 3 2 2 3 2 1 2 2 3 3 3 2 1 1 2 2 2 2 2 2 2 2 2 2 2 3 3 3 2 2 2 5 8 7 7 8
8 7 5 5 5 4 4 3 3 2 2 2 2 2 1 2 3 3 2 1 2 2 2 2 2 2 2 2 2 2 2 2 2 3 3 3 2 2 2 4 6 6 6
7 6 6 5 4 4 3 3 2 2 1 1 1 1 2 1 2 3 2 2 2 2 2 2 2 2 2 2 3 3 2 2 2 2 2 2 2 2 2 2 2 2 4
6 6 5 5 4 3 2 2 2 1 1 1 1 2 2 2 3 3 2 2 2 2 2 2 2 2 2 2 3 3 3 2 2 1 1 1 1 2 2 1 1 1 1
7 6 5 5 5 4 3 2 2 2 1 1 1 1 2 2 2 3 3 2 2 2 2 2 2 2 1 1 2 2 1 3 3 2 1 1 1 1 1 2 1 1 1
7 7 7 5 5 4 4 3 2 2 2 2 1 1 1 1 2 2 3 3 2 2 2 2 2 3 1 0 2 3 3 2 0 2 2 1 2 2 1 1 2 1 2
8 7 6 6 5 4 4 4 4 3 2 2 1 1 0 0 1 2 2 3 2 2 2 1 2 2 2 1 0 0 2 4 3 0 2 1 1 1 1 1 1 1 1
8 7 6 6 5 4 4 4 4 3 2 1 1 1 0 0 0 1 1 2 2 2 2 1 2 2 2 2 1 1 1 1 2 3 1 1 1 2 1 1 1 1 1
7 7 6 6 5 4 4 4 4 4 3 3 2 1 1 0 0 0 1 1 2 2 2 2 2 2 2 2 1 1 2 2 2 2 2 1 0 1 2 2 2 2 1
Wind_Direction
43 91 95 91 88 86 85 84 85 86 87 90 96 98 101 103 104 104 104 104 105 105 106 107 109 111 114 116 119 121 123 127 128 130 130 131 132 132 132 131 128 127 127
131 101 94 91 89 87 87 85 85 86 88 92 97 101 103 104 104 104 104 106 106 105 106 108 108 109 113 115 117 119 121 124 126 127 128 130 131 131 130 129 128 129 129
104 95 95 92 90 88 88 89 88 89 91 93 98 104 107 108 108 107 107 107 106 106 107 109 110 112 116 117 118 118 120 121 122 124 122 127 130 130 131 130 129 129 129
108 99 100 98 96 93 91 91 92 93 94 96 101 106 110 111 112 111 110 109 109 109 110 112 112 113 115 118 119 121 123 123 123 122 113 122 133 134 133 133 133 133 132
103 97 106 102 99 97 93 92 93 94 97 100 103 107 111 114 114 113 113 113 113 113 114 114 116 115 116 117 119 122 125 127 128 120 115 118 123 135 135 136 137 137 136
104 103 110 104 102 103 100 97 95 96 99 102 105 108 110 113 114 114 114 115 114 116 119 118 119 119 121 120 121 121 121 126 123 118 116 120 128 140 140 140 140 141 142
112 109 114 110 108 108 106 104 101 100 101 102 105 108 112 115 117 117 117 116 117 120 124 124 124 124 125 126 126 129 131 128 118 120 123 129 140 144 144 145 144 145 147
125 116 114 115 115 113 111 111 110 108 107 107 108 109 114 118 120 120 121 121 121 123 126 129 132 132 129 131 132 131 132 131 125 128 132 141 151 150 149 146 147 149 149
124 118 106 114 118 120 120 117 116 115 113 113 114 116 116 119 123 124 125 127 128 129 132 135 139 139 134 136 133 132 133 134 127 128 142 147 156 155 152 151 151 152 153
121 122 122 117 115 119 122 124 124 122 119 120 122 122 124 124 126 127 129 131 132 134 138 142 147 147 139 138 135 132 132 131 130 134 139 157 161 162 158 157 158 158 159
133 140 141 142 140 134 136 134 129 127 126 126 125 125 124 113 120 129 137 140 138 139 142 147 155 152 146 139 143 135 127 128 134 139 153 162 166 168 167 164 166 166 165
159 173 165 161 161 158 148 131 124 123 121 118 125 134 125 132 152 148 144 150 149 150 156 162 167 164 152 129 147 138 129 143 153 160 165 167 170 172 174 171 172 172 172
164 164 165 170 172 162 149 146 143 137 138 137 146 151 144 139 135 131 127 143 149 152 153 155 172 218 136 146 139 136 145 146 161 167 171 170 173 177 178 176 177 179 178
147 154 159 162 157 159 153 158 160 154 152 157 163 156 143 137 141 143 143 157 143 137 141 164 197 225 210 176 166 156 149 142 144 145 174 171 175 178 177 179 183 182 181
143 140 142 138 136 142 141 156 146 147 149 152 149 148 141 139 144 141 143 145 152 153 163 167 192 201 206 181 165 149 157 145 145 155 172 173 177 178 177 179 181 182 184
147 139 135 129 133 133 136 139 140 145 140 125 119 130 134 136 139 135 130 128 143 158 158 153 158 133 105 107 95 110 137 140 140 142 156 177 178 179 183 183 184 188 190
149 142 141 140 132 129 135 139 132 135 131 122 121 127 128 127 132 134 129 137 158 149 138 125 108 102 96 94 95 101 115 129 140 147 152 147 172 184 182 184 186 190 194
148 148 154 149 138 136 133 128 122 127 131 134 134 132 134 129 135 129 124 138 155 127 116 117 105 93 85 96 102 98 97 108 131 147 145 139 145 170 186 183 186 193 194
152 153 154 148 148 149 141 134 129 125 128 135 133 141 150 133 127 126 128 135 118 103 102 112 103 110 110 104 104 97 98 107 120 130 141 150 157 150 153 176 182 186 197
150 149 148 148 153 151 134 116 105 96 111 126 131 149 152 130 120 120 125 124 109 100 86 92 104 101 116 114 97 83 85 103 104 113 142 147 151 153 150 172 196 201 204
149 148 147 146 152 142 130 133 130 145 155 132 126 137 132 130 127 123 120 118 107 108 115 109 109 102 101 106 95 68 40 56 82 103 115 114 123 143 140 155 166 173 209
161 158 155 157 156 156 155 153 152 153 162 141 115 111 139 140 140 135 129 129 126 116 102 99 106 112 120 111 118 108 51 14 19 46 77 103 102 102 130 149 143 165 178
167 167 168 163 160 163 154 127 106 78 61 62 64 61 210 167 151 142 142 142 139 142 149 150 134 130 147 160 140 140 146 190 308 0 32 66 82 88 106 119 138 156 157
176 170 162 161 159 161 150 137 140 142 144 165 158 169 222 179 143 139 141 141 143 143 152 165 144 139 134 148 281 124 157 157 152 154 354 15 56 61 60 82 120 128 150
169 164 160 155 155 154 149 148 142 142 152 141 123 120 120 18 76 124 136 139 144 140 142 134 120 128 135 148 155 154 106 104 126 148 188 325 17 22 34 63 83 94 117
157 155 150 147 151 152 150 145 146 153 153 134 131 169 190 265 326 331 130 139 141 135 136 144 136 132 139 140 137 138 144 147 164 153 168 181 104 14 36 48 64 68 66